Location: Capannuccia
(43.7000°N, 11.3000°E)
Time: 23:24:17
(UTC+00:00)

STARLINK-2673 - Pass Details

Date: 30 July 2021
Orbit: 546 x 548 km, 53.0° (Epoch: 20 September)

Event Time Altitude Azimuth Distance (km) Brightness Sun altitude
Rises 19:36:53 0° 303° (WNW) 2,723 9.5 -9.6°
Reaches altitude 10° 19:39:08 10° 300° (WNW) 1,826 7.9 -9.9°
Maximum altitude 19:43:14 65° 220° (SW) 607 3.8 -10.5°
Enters shadow 19:46:31 15° 140° (SE) 1,503 5.2 -10.9°
